TimeCST,TemperatureF,Dew PointF,Humidity,Sea Level PressureIn,VisibilityMPH,Wind Direction,Wind SpeedMPH,Gust SpeedMPH,PrecipitationIn,Events,Conditions,WindDirDegrees,DateUTC
12:15 AM,5.0,1.4,85,30.33,0.5,Calm,Calm,-,N/A,Fog,Light Freezing Fog,0,2013-03-07 06:15:00
12:35 AM,5.0,1.4,85,30.33,1.0,Calm,Calm,-,N/A,,Mist,0,2013-03-07 06:35:00
12:55 AM,1.4,-0.4,92,30.34,5.0,Calm,Calm,-,N/A,,Clear,0,2013-03-07 06:55:00
1:15 AM,5.0,1.4,85,30.33,7.0,Calm,Calm,-,N/A,,Clear,0,2013-03-07 07:15:00
1:35 AM,3.2,1.4,92,30.32,7.0,Calm,Calm,-,N/A,,Clear,0,2013-03-07 07:35:00
1:55 AM,-0.4,-4.0,85,30.32,10.0,Calm,Calm,-,N/A,,Clear,0,2013-03-07 07:55:00
2:15 AM,-0.4,-4.0,85,30.33,10.0,Calm,Calm,-,N/A,,Clear,0,2013-03-07 08:15:00
2:35 AM,-2.2,-7.6,78,30.33,10.0,Calm,Calm,-,N/A,,Clear,0,2013-03-07 08:35:00
2:55 AM,-0.4,-4.0,85,30.32,10.0,Calm,Calm,-,N/A,,Clear,0,2013-03-07 08:55:00
3:15 AM,1.4,-2.2,85,30.33,10.0,Calm,Calm,-,N/A,,Clear,0,2013-03-07 09:15:00
3:35 AM,1.4,-2.2,85,30.32,10.0,Calm,Calm,-,N/A,,Clear,0,2013-03-07 09:35:00
3:55 AM,1.4,-4.0,78,30.33,10.0,Calm,Calm,-,N/A,,Clear,0,2013-03-07 09:55:00
4:15 AM,-0.4,-4.0,85,30.33,10.0,Calm,Calm,-,N/A,,Clear,0,2013-03-07 10:15:00
4:35 AM,-4.0,-7.6,85,30.34,10.0,Calm,Calm,-,N/A,,Clear,0,2013-03-07 10:35:00
4:55 AM,-4.0,-9.4,78,30.34,10.0,Calm,Calm,-,N/A,,Clear,0,2013-03-07 10:55:00
5:15 AM,-4.0,-7.6,85,30.34,10.0,Calm,Calm,-,N/A,,Clear,0,2013-03-07 11:15:00
5:35 AM,-0.4,-5.8,78,30.34,10.0,Calm,Calm,-,N/A,,Clear,0,2013-03-07 11:35:00
5:55 AM,-5.8,-9.4,84,30.34,10.0,Calm,Calm,-,N/A,,Clear,0,2013-03-07 11:55:00
6:15 AM,-4.0,-7.6,85,30.35,10.0,Calm,Calm,-,N/A,,Clear,0,2013-03-07 12:15:00
6:35 AM,-4.0,-9.4,78,30.35,10.0,Calm,Calm,-,N/A,,Clear,0,2013-03-07 12:35:00
6:55 AM,-5.8,-9.4,84,30.35,10.0,Calm,Calm,-,N/A,,Clear,0,2013-03-07 12:55:00
7:15 AM,-4.0,-7.6,85,30.36,10.0,Calm,Calm,-,N/A,,Clear,0,2013-03-07 13:15:00
7:35 AM,-4.0,-7.6,85,30.36,10.0,Calm,Calm,-,N/A,,Clear,0,2013-03-07 13:35:00
7:55 AM,-2.2,-5.8,85,30.35,10.0,Calm,Calm,-,N/A,,Clear,0,2013-03-07 13:55:00
8:15 AM,1.4,-2.2,85,30.35,10.0,Calm,Calm,-,N/A,,Clear,0,2013-03-07 14:15:00
8:35 AM,1.4,-2.2,85,30.36,10.0,Calm,Calm,-,N/A,,Clear,0,2013-03-07 14:35:00
8:55 AM,5.0,3.2,92,30.36,10.0,Calm,Calm,-,N/A,,Clear,0,2013-03-07 14:55:00
9:15 AM,10.4,6.8,85,30.37,10.0,Calm,Calm,-,N/A,,Clear,0,2013-03-07 15:15:00
9:35 AM,12.2,10.4,92,30.37,10.0,Calm,Calm,-,N/A,,Clear,0,2013-03-07 15:35:00
9:55 AM,14.0,12.2,93,30.37,10.0,Calm,Calm,-,N/A,,Clear,0,2013-03-07 15:55:00
10:15 AM,15.8,12.2,86,30.37,10.0,Calm,Calm,-,N/A,,Clear,0,2013-03-07 16:15:00
10:35 AM,15.8,12.2,86,30.37,10.0,Calm,Calm,-,N/A,,Clear,0,2013-03-07 16:35:00
10:55 AM,19.4,14.0,80,30.37,10.0,SE,4.6,-,N/A,,Clear,140,2013-03-07 16:55:00
11:15 AM,23.0,14.0,68,30.37,10.0,SE,3.5,-,N/A,,Clear,140,2013-03-07 17:15:00
11:35 AM,24.8,14.0,64,30.37,10.0,Calm,Calm,-,N/A,,Clear,0,2013-03-07 17:35:00
11:55 AM,24.8,14.0,64,30.38,10.0,SSE,4.6,-,N/A,,Clear,160,2013-03-07 17:55:00
12:15 PM,26.6,14.0,59,30.37,10.0,SSE,5.8,-,N/A,,Clear,150,2013-03-07 18:15:00
12:35 PM,26.6,14.0,59,30.36,10.0,SSE,5.8,-,N/A,,Clear,150,2013-03-07 18:35:00
12:55 PM,28.4,14.0,55,30.35,10.0,South,4.6,-,N/A,,Clear,170,2013-03-07 18:55:00
1:15 PM,28.4,14.0,55,30.35,10.0,South,3.5,-,N/A,,Clear,190,2013-03-07 19:15:00
1:35 PM,28.4,14.0,55,30.34,10.0,South,3.5,-,N/A,,Clear,190,2013-03-07 19:35:00
1:55 PM,28.4,14.0,55,30.33,10.0,South,3.5,-,N/A,,Clear,170,2013-03-07 19:55:00
2:15 PM,26.6,14.0,59,30.32,10.0,South,3.5,-,N/A,,Clear,170,2013-03-07 20:15:00
2:35 PM,28.4,14.0,55,30.33,10.0,South,4.6,-,N/A,,Clear,180,2013-03-07 20:35:00
2:55 PM,28.4,15.8,59,30.33,10.0,South,4.6,-,N/A,,Clear,180,2013-03-07 20:55:00
3:15 PM,28.4,15.8,59,30.33,10.0,South,3.5,-,N/A,,Scattered Clouds,190,2013-03-07 21:15:00
3:35 PM,30.2,14.0,51,30.32,10.0,SSE,5.8,-,N/A,,Scattered Clouds,160,2013-03-07 21:35:00
3:55 PM,28.4,17.6,64,30.32,10.0,South,3.5,-,N/A,,Clear,190,2013-03-07 21:55:00
4:15 PM,28.4,14.0,55,30.31,10.0,South,3.5,-,N/A,,Clear,170,2013-03-07 22:15:00
4:35 PM,28.4,14.0,55,30.32,10.0,South,4.6,-,N/A,,Clear,180,2013-03-07 22:35:00
4:55 PM,26.6,14.0,59,30.32,10.0,South,4.6,-,N/A,,Clear,170,2013-03-07 22:55:00
5:15 PM,26.6,12.2,55,30.32,10.0,Calm,Calm,-,N/A,,Clear,0,2013-03-07 23:15:00
5:35 PM,24.8,12.2,59,30.32,10.0,SE,3.5,-,N/A,,Clear,140,2013-03-07 23:35:00
5:55 PM,24.8,12.2,59,30.32,10.0,SSE,3.5,-,N/A,,Clear,150,2013-03-07 23:55:00
7:35 PM,24.8,12.2,59,30.30,10.0,ESE,4.6,-,N/A,,Clear,110,2013-03-08 01:35:00
7:55 PM,23.0,12.2,63,30.29,10.0,ESE,5.8,-,N/A,,Clear,120,2013-03-08 01:55:00
8:15 PM,24.8,12.2,59,30.30,10.0,ESE,4.6,-,N/A,,Clear,110,2013-03-08 02:15:00
8:35 PM,23.0,12.2,63,30.30,10.0,SE,4.6,-,N/A,,Clear,140,2013-03-08 02:35:00
8:55 PM,21.2,10.4,63,30.30,10.0,SE,4.6,-,N/A,,Clear,140,2013-03-08 02:55:00
9:15 PM,23.0,12.2,63,30.30,10.0,SE,5.8,-,N/A,,Clear,130,2013-03-08 03:15:00
9:35 PM,21.2,12.2,68,30.30,10.0,SE,4.6,-,N/A,,Clear,140,2013-03-08 03:35:00
9:55 PM,21.2,10.4,63,30.30,10.0,SE,5.8,-,N/A,,Clear,130,2013-03-08 03:55:00
10:15 PM,23.0,12.2,63,30.29,10.0,SE,6.9,-,N/A,,Clear,130,2013-03-08 04:15:00
10:35 PM,23.0,12.2,63,30.29,10.0,ESE,9.2,-,N/A,,Clear,120,2013-03-08 04:35:00
10:55 PM,21.2,12.2,68,30.29,10.0,SE,6.9,-,N/A,,Clear,130,2013-03-08 04:55:00
11:15 PM,21.2,10.4,63,30.30,10.0,SSE,5.8,-,N/A,,Clear,150,2013-03-08 05:15:00
11:35 PM,21.2,10.4,63,30.31,10.0,SE,5.8,-,N/A,,Clear,130,2013-03-08 05:35:00
11:55 PM,19.4,10.4,68,30.31,10.0,SE,4.6,-,N/A,,Clear,140,2013-03-08 05:55:00